www.pogodaiklimat.ru

Погода и климат >> Архив погоды >> Иран >> Safi-Abad Dezful


ПОГОДА в Safi-Abad Dezful

  • Прогноз погоды в Safi-Abad Dezful
  • Монитор погоды в Safi-Abad Dezful
  • Климат города

АРХИВ ПОГОДЫ в Safi-Abad Dezful

Время (UTC), дата Ветер
(напр.,м/с)
 
Видим.   Явления Облачность Т
(С)
Тd
(С)
f
(%)
Тe
(С)
Тes
(С)
Комфортность P
(гПа)
Po
(гПа)
Тmin
(С)
Tmax
(С)
R
(мм)
R24
(мм)
S
(см)
03 16.09 СВ 4 8000 м мгла ясно +25.4 +21.2 78 +32 +32 очень
душно
1005.6 996.5 +25.1
06 16.09 В 3 10 км ясно +34.6 +23.0 51 +45 +52 опасность
перегрева
1005.8 996.6
09 16.09 В 2 10 км ясно +41.8 +19.2 27 +46 +62 опасность
перегрева
1003.9 994.8
12 16.09 В 6 10 км ясно +45.3 +13.2 16 +45 +48 опасность
перегрева
1001.7 992.7
15 16.09 З 4 10 км ясно +38.7 +14.7 24 +39 +39 душно 1001.5 992.3 +45.7
18 16.09 З 6 10 км ясно +33.6 +11.2 26 +33 +33 жарко 1002.6 993.5
21 16.09 З 4 10 км ясно +30.5 +11.8 32 +31 +31 жарко 1002.4 993.2
00 17.09 СЗ 4 10 км ясно +30.7 +9.4 27 +30 +30 жарко 1002.0 992.9
03 17.09 СЗ 6 10 км ясно +32.1 +6.2 20 +30 +30 жарко 1002.8 993.7 +29.2
06 17.09 С 5 10 км ясно +39.4 +8.1 15 +37 +42 очень
жарко
1003.6 994.5
09 17.09 ЮВ 5 10 км ясно +42.8 +5.6 11 +45 +53 опасность
перегрева
1002.3 993.3
12 17.09 С 9 7000 м пыльный позёмок ясно +45.5 +4.2 8 +42 +43 опасность
перегрева
1000.9 991.9
15 17.09 СВ 4 10 км ясно +39.5 +9.4 16 +38 +38 очень
жарко
1001.2 992.2 +46.1
18 17.09 СВ 6 10 км ясно +36.3 +9.6 20 +35 +35 очень
жарко
1002.1 993.0
21 17.09 СВ 6 10 км ясно +31.2 +8.3 24 +30 +30 жарко 1002.3 993.4
00 18.09 СВ 2 10 км ясно +28.3 +9.5 31 +28 +28 жарко 1002.9 993.8
03 18.09 В 4 5000 м дымка ясно +25.8 +22.9 84 +34 +34 очень
душно
1004.8 995.7 +24.3
06 18.09 ЮВ 4 6000 м дымка ясно +31.4 +29.0 87 +54 +60 опасность
перегрева
1005.6 996.5
09 18.09 ЮВ 3 8000 м мгла ясно +38.1 +26.4 52 +54 +68 опасность
перегрева
1004.3 995.2
12 18.09 ЮВ 6 10 км ясно +43.2 +19.7 26 +48 +51 опасность
перегрева
1002.2 993.1
15 18.09 В 3 10 км 1/1 1200 м
[Cb calv]
+38.2 +18.9 33 +43 +43 опасность
перегрева
1002.2 993.0 +44.3
18 18.09 В 3 10 км ясно +32.5 +16.5 38 +35 +35 душно 1004.8 995.6
21 18.09 В 5 7000 м мгла ясно +31.5 +26.6 75 +48 +48 опасность
перегрева
1006.5 997.4
00 19.09 В 4 7000 м дымка ясно +30.0 +26.6 82 +46 +46 опасность
перегрева
1006.8 997.7
03 19.09 СВ 2 5000 м мгла ясно +28.7 +23.9 75 +40 +40 очень
душно
1006.8 997.6 +28.1
06 19.09 З 4 8000 м мгла ясно +34.0 +23.9 56 +46 +52 опасность
перегрева
1007.8 998.6
09 19.09 ЮВ 1 8000 м мгла ясно +41.6 +21.6 32 +49 +67 опасность
перегрева
1005.7 996.7
12 19.09 ЮЗ 4 8000 м мгла 6/0
[Cs]
+42.4 +17.9 24 +45 +49 опасность
перегрева
1004.0 995.0
15 19.09 штиль 0 6000 м мгла 6/0
[Ci ing]
+38.0 +21.5 39 +46 +46 опасность
перегрева
1004.0 994.9 +42.9
18 19.09 В 2 7000 м мгла ясно +33.8 +15.1 33 +36 +36 очень
душно
1006.3 997.1
21 19.09 СВ 2 10 км ясно +30.9 +15.9 40 +34 +34 душно 996.5
00 20.09 С 2 10 км ясно +30.6 +13.8 36 +32 +32 жарко 1005.5 996.4
03 20.09 СВ 3 10 км ясно +25.7 +17.6 61 +30 +30 душно 1006.7 997.5 +24.7
06 20.09 В 2 10 км ясно +33.6 +21.7 50 +42 +51 опасность
перегрева
1007.5 998.3
09 20.09 В 2 10 км ясно +42.0 +16.1 22 +43 +59 опасность
перегрева
1005.8 996.7
12 20.09 ЮЗ 3 10 км 1/1 1200 м
[Sc]
+43.2 +15.5 20 +44 +49 опасность
перегрева
1004.0 994.9
15 20.09 СВ 7 10 км 1/1 1200 м
[Sc]
+35.3 +13.0 26 +36 +36 очень
жарко
1005.3 996.0 +43.2
18 20.09 СЗ 1 10 км ясно +30.4 +13.7 36 +32 +32 жарко 1006.6 997.4
21 20.09 СВ 3 10 км ясно +26.6 +14.8 48 +29 +29 жарко 1006.3 996.8
00 21.09 С 4 10 км ясно +26.1 +13.2 45 +28 +28 жарко 1005.9 996.7
03 21.09 СЗ 4 10 км ясно +24.6 +13.8 51 +27 +27 жарко 1006.8 997.5 +23.3
06 21.09 С 4 10 км ясно +36.3 +13.7 26 +37 +43 очень
жарко
1007.6 998.4
09 21.09 СВ 6 10 км ясно +41.5 +5.0 11 +39 +45 очень
жарко
1006.7 997.5
12 21.09 ЮВ 6 10 км ясно +42.8 +5.5 11 +40 +43 очень
жарко
1005.4 996.3
15 21.09 ЮВ 2 10 км ясно +37.6 +11.4 21 +37 +37 очень
жарко
1005.3 996.0 +43.1
18 21.09 В 4 10 км ясно +31.4 +11.1 29 +32 +32 жарко 1006.7 997.6
21 21.09 СВ 4 10 км ясно +27.7 +9.7 32 +28 +28 жарко 1006.8 997.7
00 22.09 СВ 4 10 км ясно +26.0 +10.4 37 +27 +27 жарко 1006.7 997.6
03 22.09 С 3 10 км 4/0
[Cc]
+24.9 +12.1 45 +27 +27 жарко 1007.5 998.2 +24.7
06 22.09 СВ 3 10 км 3/3 1200 м
[Sc diur, vesp]
+36.0 +17.9 34 +39 +44 очень
душно
1008.4 999.2
09 22.09 ЮВ 4 10 км 3/0
[Ac trans]
+39.8 +15.1 23 +41 +49 опасность
перегрева
1008.5 999.3
12 22.09 СВ 4 10 км 5/1 1200 м
[Sc diur, vesp Ac trans]
+42.8 +9.0 13 +41 +44 опасность
перегрева
1006.2 997.0
15 22.09 ЮВ 2 10 км 3/3 1200 м
[Sc diur, vesp]
+36.4 +15.3 29 +38 +38 очень
душно
1006.6 997.3 +43.2
18 22.09 штиль 0 10 км ясно +30.2 +16.9 45 +34 +34 очень
душно
1008.0 998.8
21 22.09 СВ 4 10 км ясно +28.6 +13.5 39 +30 +30 жарко 998.4

 

Местоположение метеостанции Safi-Abad Dezful (Иран): широта 32.27 долгота 48.42 высота над уровнем моря 83 м.

В архиве по умолчанию представлена погода в Safi-Abad Dezful за последнюю неделю. Архивные данные за месяц целиком и за предыдущие месяцы, начиная с января 2011 года, Вы можете получить, выбрав интересующий диапазон дат из раскрывающегося списка и нажав кнопку "Ввод!".


*Определитесь, кто Вы:
робот инопланетянин человек

Внимание! Время в таблицах - всемирное. Для получения местного времени необходимо прибавить поправку, которая в Safi-Abad Dezful равна 3.5 ч.

Смотрите также архив погоды в соседних городах и на ближайших метеорологических станциях:

Погода в Masjed-Soleyman (Иран) (86 км)
Погода в Ahwaz (Иран) (107 км)
Погода в Amarah (Ирак) (127 км)
Погода в Khorram Abad (Иран) (135 км)
Погода в Ali Al-Gharbi (Ирак) (161 км)
Погода в Ali-Goodarz (Иран) (172 км)
Погода в Basrah (Ирак) (199 км)
Погода в Basrah Airport (Ирак) (204 км)
Погода в Omidieh (Иран) (205 км)
Погода в Abadan (Иран) (212 км)

Пояснения к столбцам:

Ветер - указаны скорость ветра в м/с - средняя за 10 мин, порывы в срок и между сроками (в фигурных скобках) и направление, откуда дует ветер: С - северный, СВ - северо-восточный, В - восточный, ЮВ - юго-восточный, Ю - южный, ЮЗ - юго-западный, З - западный, СЗ - северо-западный.
Видимость - горизонтальная дальность видимости в метрах или километрах. При видимости от 1 до 10 км при отсутствии осадков обычно наблюдается дымка, при ухудшении видимости до 1 км и менее - туман. В сухую погоду видимость может ухудшаться дымом, пылью или мглою.
Явления - указаны атмосферные явления, наблюдавшиеся в срок или в последний час перед сроком; фигурными скобками обозначены явления, наблюдавшиеся между сроками (за 1-3 часа до срока); квадратными скобками обозначены град или гололедные отложения с указанием их диаметра в мм.
Облачность - указаны через наклонную черту общая и нижняя облачность в баллах и высота нижней границы облаков в метрах; квадратными скобками обозначены формы облаков: Ci - перистые, Cs - перисто-слоистые, Cc - перисто-кучевые, Ac - высококучевые, As - высокослоистые, Sc - слоисто-кучевые, Ns - слоисто-дождевые, Cu - кучевые, Cb - кучево-дождевые. Подробнее классификацию облаков см. в Атласе облаков (PDF).
T - Температура воздуха - температура, измеренная на высоте 2 м над землей.
Td - Температура точки росы - температура, при понижении до которой содержащийся в воздухе водяной пар достигнет насыщения.
f - Относительная влажность воздуха - влажноcть воздуха, измеренная на высоте 2 м над землей.
Te - Эффективная температура - температура, которую ощущает одетый по сезону человек в тени. Характеристика душности погоды. При расчете учитывается влияние влажности воздуха и скорости ветра на теплоощущения человека.
Tes - Эффективная температура на солнце - температура, которую ощущает человек, с поправкой на солнечный нагрев. Характеристика знойности погоды. Зависит от высоты солнца над горизонтом, облачности и скорости ветра. Ночью, в пасмурную погоду, а также при ветре 12 м/с и более поправка равна нулю.
P - Атмосферное давление - приведенное к уровню моря атмосферное давление.
Po - Атмосферное давление - измеренное на уровне метеостанции атмосферное давление.
Tmin - Минимальная температура - минимум температуры воздуха на высоте 2 м над землей.
Tmax - Максимальная температура - максимум температуры воздуха на высоте 2 м над землей.
R - Количество осадков - Количество выпавших осадков за период времени, мм. При наведении курсора мыши на число - период времени, за который выпало указанное количество осадков.
R24 - Количество осадков - Количество выпавших осадков за 24 часа, мм.
S - Снежный покров - Высота снежного покрова, см. При наведении курсора мыши на число - состояние снежного покрова и степень покрытия местности в баллах.